Torna al catalogo

ARIANE 44L R/B

AttivoHEO
NORAD 27402·ROCKET BODY·🇫🇷 France

Lanciato Mar 29, 2002 da Guiana Space Centre

Loading…

Prossimi Passaggi (prossime 24 ore)

TLE

AggiornatoSource: Space-Track

Epoca: Sep 14, 2026, 15:27 UTC

1 27402U 02015D   26257.64424882  .00003335  00000-0  28070-2 0  9996
2 27402   3.7454 349.0970 7001081 201.7851  99.8618  2.60107160219515

Traccia ARIANE 44L R/B in tempo reale con AllMySat

Download on the App Store